YBTLYBMK

Guest
Details From YBTL - Townsville Intl
To YBMK - Mackay
Flight Number -
Tags Generated
Created
Modified
Stats Distance 179 nm / 331 km
Max Altitude 0 ft / 0 m
Waypoints 3
Social Downloads 0
Likes 0
Share VATSIM

Download

Looking for another format? Having issues loading an existing format? Contact us
Advertisement - Login to hide

Notes

Generated

Route

YBTL BMKNA YBMK

ID Type Via Altitude Latitude Longitude Leg Dist Tot Dist Heading (true) Name
O YBTL APT - 0 ft / 0 m -19.25581˚ 146.75554˚ - 0 nm - -
BMKNA FIX - 0 ft / 0 m -21.05017˚ 149.00284˚ 166 nm 166 nm 131° / 130° -
O YBMK APT - 0 ft / 0 m -21.17569˚ 149.17421˚ 12 nm 178 nm 128° / 128° -

Altitude Profile

Advertisement - Login to hide

Weather


0- 5 10 15 20 25 30 35+ Temperature / ° C

Clouds and Precipitation
Forecast for 2018-05-21 12:00 UTC. Updated 16 minutes ago

Ground ~20,000 ft ~40,000 ft Winds

YBTL

Details ICAO YBTL (TSV)
Name Townsville Intl
Region Australia
Timezone Australia/Brisbane (UTC+10.0)
Stats Elevation 18 ft / 5 m (AMSL)
Location -19.251349° 146.765017°
Runways 2
Magnetic Variation 7.373° E

METAR

YBTL 211130Z AUTO 12007KT 9999 // NCD 21/16 Q1020

Decode

TAF

TAF YBTL 210453Z 2106/2206 06015KT 9999 FEW045 FM210800 16006KT 9999 SCT030 FM220300 07015KT 9999 FEW045

Decode

Departure Runways

ID Width Length Bearing (true) Bearing (mag) Surface Threshold Offset Overrun Length
01 148 ft / 45 m 8,035 ft / 2,449 m 24.00° 16.63° Asphalt 0 ft / 0 m 0 ft / 0 m
07 98 ft / 30 m 3,617 ft / 1,102 m 73.84° 66.47° Concrete 0 ft / 0 m 0 ft / 0 m
19 148 ft / 45 m 8,035 ft / 2,449 m 204.00° 196.63° Asphalt 0 ft / 0 m 0 ft / 0 m
25 98 ft / 30 m 3,617 ft / 1,102 m 253.84° 246.47° Concrete 0 ft / 0 m 0 ft / 0 m

YBMK

Details ICAO YBMK (MKY)
Name Mackay
Region Australia
Timezone Australia/Brisbane (UTC+10.0)
Stats Elevation 18 ft / 5 m (AMSL)
Location -21.171614° 149.181130°
Runways 2
Magnetic Variation 8.375° E

METAR

YBMK 211100Z AUTO 21007KT 9999 // NCD 14/11 Q1021

Decode

TAF

Not found

Destination Runways

ID Width Length Bearing (true) Bearing (mag) Surface Threshold Offset Overrun Length
05 98 ft / 30 m 4,411 ft / 1,344 m 57.80° 49.42° Asphalt 194 ft / 59 m 0 ft / 0 m
14 148 ft / 45 m 6,516 ft / 1,986 m 147.90° 139.52° Asphalt 0 ft / 0 m 0 ft / 0 m
23 98 ft / 30 m 4,411 ft / 1,344 m 237.80° 229.42° Asphalt 0 ft / 0 m 0 ft / 0 m
32 148 ft / 45 m 6,516 ft / 1,986 m 327.90° 319.52° Asphalt 0 ft / 0 m 0 ft / 0 m

Popular Alternatives